Weather reports worldwide

Advertisment
Santander, Spain (8023): temperature & dewpoint: 19.08.2019 08:00:00 - 25.08.2019 08:00:00 (CEST)Santander, Spain (8023): wind speed: 19.08.2019 08:00:00 - 25.08.2019 08:00:00 (CEST)Santander, Spain (8023): wind direction: 19.08.2019 08:00:00 - 25.08.2019 08:00:00 (CEST)Santander, Spain (8023): reduced air pressure: 19.08.2019 08:00:00 - 25.08.2019 08:00:00 (CEST)Santander, Spain (8023): visibility: 19.08.2019 08:00:00 - 25.08.2019 08:00:00 (CEST)Santander, Spain (8023): precipitation: 19.08.2019 08:00:00 - 25.08.2019 08:00:00 (CEST)
Date & Time tt [°C] td [°C] ff [km/h] ff [kn] dd ppp [hPa] vv [km] rr [mm]
25.08.2019 08:00:00 - - - - - - - -
25.08.2019 07:00:00 19,7 17,3 0 0 N 1018,1 9 0,0
25.08.2019 06:00:00 19,8 17,4 4 2 SSE 1018,4 8 0,0
25.08.2019 05:00:00 19,9 17,1 4 2 SW 1018,4 9 -
25.08.2019 04:00:00 19,8 16,8 4 2 SSW 1018,5 9 0,0
25.08.2019 03:00:00 19,7 17,1 5 3 SW 1018,7 7 0,0
25.08.2019 02:00:00 19,9 17,1 5 3 WSW 1019,1 9 -
25.08.2019 01:00:00 20,0 17,6 8 4 WSW 1019,4 8 0,0
25.08.2019 00:00:00 20,0 17,2 8 4 WSW 1019,5 9 0,0
24.08.2019 23:00:00 20,0 17,4 8 4 WSW 1019,6 9 -
24.08.2019 22:00:00 20,1 17,3 9 5 WSW 1019,4 8 0,0
24.08.2019 21:00:00 20,4 17,0 13 7 WNW 1019,1 8 0,0
24.08.2019 20:00:00 20,8 17,8 15 8 WNW 1019,0 9 -
24.08.2019 19:00:00 21,0 17,8 16 9 WNW 1019,1 8 0,0
24.08.2019 18:00:00 21,0 18,0 21 11 NW 1019,1 8 0,0
24.08.2019 17:00:00 21,4 18,2 21 11 NW 1019,0 9 -
24.08.2019 16:00:00 22,3 18,7 18 10 WNW 1018,9 10 0,0
24.08.2019 15:00:00 22,4 18,2 18 10 NW 1018,8 10 0,0
24.08.2019 14:00:00 22,9 19,3 21 11 WNW 1018,7 10 -
24.08.2019 13:00:00 22,5 19,7 22 12 W 1018,5 8 0,0
24.08.2019 12:00:00 22,1 19,3 26 14 W 1018,2 8 0,0
24.08.2019 11:00:00 21,8 19,2 26 14 W 1017,9 9 -
24.08.2019 10:00:00 21,2 19,1 26 14 W 1017,6 7 0,0
24.08.2019 09:00:00 20,3 18,2 21 11 W 1017,2 6 0,0
24.08.2019 08:00:00 20,0 16,6 13 7 WSW 1016,7 10 -
24.08.2019 07:00:00 20,2 16,4 11 6 WSW 1016,3 10 0,0
24.08.2019 06:00:00 20,0 17,0 16 9 WSW 1016,1 8 0,0
24.08.2019 05:00:00 19,6 16,1 16 9 W 1016,3 10 -
24.08.2019 04:00:00 20,8 14,4 2 1 WSW 1015,9 10 0,0
24.08.2019 03:00:00 20,9 15,7 2 1 N 1016,1 12 0,0
24.08.2019 02:00:00 21,6 15,9 4 2 W 1016,4 10 -
24.08.2019 01:00:00 20,7 19,4 9 5 S 1016,5 4,8 0,0
24.08.2019 00:00:00 20,6 18,5 4 2 SSE 1016,7 7 0,0
23.08.2019 23:00:00 20,4 18,7 4 2 E 1016,7 15 -
23.08.2019 22:00:00 21,0 19,5 11 6 ESE 1016,4 4,8 0,0
23.08.2019 21:00:00 21,4 19,9 9 5 E 1016,3 4,4 0,0
23.08.2019 20:00:00 22,3 20,0 9 5 E 1016,2 15 -
23.08.2019 19:00:00 23,2 20,0 11 6 E 1016,4 13 0,0
23.08.2019 18:00:00 23,7 20,0 9 5 ENE 1016,7 13 0,0
23.08.2019 17:00:00 24,0 20,1 13 7 E 1016,7 18 -
23.08.2019 16:00:00 24,3 19,8 11 6 E 1017,1 14 0,0
23.08.2019 15:00:00 24,0 18,0 11 6 E 1017,3 16 0,0
23.08.2019 14:00:00 23,3 17,7 13 7 E 1017,7 18 -
23.08.2019 13:00:00 22,8 15,6 15 8 E 1018,1 16 0,0
23.08.2019 12:00:00 21,8 15,2 8 4 E 1018,4 15 0,0
23.08.2019 11:00:00 21,1 13,3 8 4 E 1018,7 20 -
23.08.2019 10:00:00 19,8 15,0 4 2 NE 1018,8 10 0,0
23.08.2019 09:00:00 18,9 12,6 2 1 W 1019,1 16 0,0
23.08.2019 08:00:00 16,9 13,6 9 5 S 1019,0 17 -
23.08.2019 07:00:00 17,0 13,5 11 6 S 1018,9 11 0,0
23.08.2019 06:00:00 17,2 13,9 5 3 S 1019,3 10 0,0
23.08.2019 05:00:00 18,2 12,6 2 1 ENE 1019,8 13 -
23.08.2019 04:00:00 18,9 12,9 11 6 SE 1019,9 14 0,0
23.08.2019 03:00:00 19,4 12,9 18 10 E 1020,1 13 0,0
23.08.2019 02:00:00 19,2 12,5 13 7 E 1020,6 17 -
23.08.2019 01:00:00 19,4 14,4 18 10 E 1020,8 10 0,0
23.08.2019 00:00:00 19,1 15,2 16 9 E 1021,5 9 0,0
22.08.2019 23:00:00 19,8 17,2 18 10 E 1021,5 12 -
22.08.2019 22:00:00 20,2 18,0 24 13 E 1021,4 6 0,0
22.08.2019 21:00:00 20,7 18,1 24 13 E 1021,2 7 0,0
22.08.2019 20:00:00 21,5 18,3 28 15 E 1020,9 13 -
22.08.2019 19:00:00 22,0 18,6 28 15 E 1020,9 13 0,0
22.08.2019 18:00:00 22,8 19,0 22 12 E 1021,6 14 0,0
22.08.2019 17:00:00 23,2 19,4 24 13 ENE 1021,8 15 -
22.08.2019 16:00:00 23,2 19,1 28 15 ENE 1022,1 13 0,0
22.08.2019 15:00:00 23,1 18,8 26 14 ENE 1022,7 13 0,0
22.08.2019 14:00:00 22,8 18,6 18 10 ENE 1023,2 15 -
22.08.2019 13:00:00 22,4 18,0 9 5 NE 1023,8 12 0,0
22.08.2019 12:00:00 23,0 16,8 8 4 ENE 1024,0 15 0,0
22.08.2019 11:00:00 21,0 15,8 4 2 NNE 1023,9 14 -
22.08.2019 10:00:00 20,6 15,4 2 1 N 1024,0 10 0,0
22.08.2019 09:00:00 18,7 14,0 5 3 SSW 1023,8 14 0,0
22.08.2019 08:00:00 17,2 13,7 8 4 SSW 1023,3 15 -
22.08.2019 07:00:00 16,8 13,5 5 3 S 1022,9 13 0,0
22.08.2019 06:00:00 17,3 14,4 5 3 S 1022,8 10 0,0
22.08.2019 05:00:00 17,7 14,2 5 3 S 1022,9 15 -
22.08.2019 04:00:00 17,9 14,8 9 5 SSW 1023,1 10 0,0
22.08.2019 03:00:00 18,7 15,0 4 2 S 1023,4 13 0,0
22.08.2019 02:00:00 18,6 15,1 9 5 S 1023,8 15 -
22.08.2019 01:00:00 18,8 16,0 9 5 S 1024,1 11 0,0
22.08.2019 00:00:00 19,3 16,1 8 4 S 1024,2 12 0,0
21.08.2019 23:00:00 19,6 16,6 5 3 ESE 1024,4 15 -
21.08.2019 22:00:00 19,7 16,5 9 5 E 1023,8 11 0,0
21.08.2019 21:00:00 20,7 17,1 13 7 E 1023,2 11 0,0
21.08.2019 20:00:00 21,6 17,2 16 9 ENE 1022,7 20 -
21.08.2019 19:00:00 22,2 16,7 16 9 ENE 1022,2 16 0,0
21.08.2019 18:00:00 22,5 17,0 18 10 ENE 1022,1 14 0,0
21.08.2019 17:00:00 22,6 17,5 21 11 ENE 1022,0 20 -
21.08.2019 16:00:00 22,7 17,6 22 12 ENE 1021,9 16 0,0
21.08.2019 15:00:00 22,6 17,1 24 13 ENE 1022,0 15 0,0
21.08.2019 14:00:00 22,5 16,5 24 13 ENE 1022,1 20 -
21.08.2019 13:00:00 21,5 16,2 24 13 ENE 1022,6 15 0,0
21.08.2019 12:00:00 22,2 15,8 21 11 ENE 1022,8 16 0,0
21.08.2019 11:00:00 21,6 16,5 21 11 E 1022,7 20 -
21.08.2019 10:00:00 21,2 15,9 22 12 E 1022,7 14 0,0
21.08.2019 09:00:00 20,3 15,7 15 8 E 1022,8 14 0,0
21.08.2019 08:00:00 18,5 14,8 11 6 ESE 1022,7 17 -
21.08.2019 07:00:00 18,5 14,4 15 8 ESE 1022,7 13 0,0
21.08.2019 06:00:00 18,2 14,3 11 6 ESE 1023,0 15 0,0
21.08.2019 05:00:00 18,0 14,5 11 6 ESE 1023,3 12 -
21.08.2019 04:00:00 17,9 14,8 8 4 SE 1023,8 12 0,0
21.08.2019 03:00:00 17,9 14,4 11 6 SSE 1024,5 12 0,0
21.08.2019 02:00:00 17,7 15,0 11 6 SE 1024,7 13 -
21.08.2019 01:00:00 17,4 14,1 11 6 SE 1025,1 13 0,0
21.08.2019 00:00:00 18,5 14,2 15 8 ESE 1025,3 13 0,0
20.08.2019 23:00:00 19,0 14,3 16 9 E 1025,5 17 -
20.08.2019 22:00:00 19,2 13,8 24 13 E 1025,0 15 0,0
20.08.2019 21:00:00 19,4 13,8 26 14 E 1025,1 15 0,0
20.08.2019 20:00:00 20,1 13,5 26 14 E 1025,0 18 -
20.08.2019 19:00:00 20,6 14,0 28 15 E 1024,7 18 0,0
20.08.2019 18:00:00 21,1 14,0 24 13 E 1024,5 19 0,0
20.08.2019 17:00:00 21,8 14,4 22 12 E 1024,8 20 -
20.08.2019 16:00:00 22,2 16,0 18 10 ENE 1025,1 13 0,0
20.08.2019 15:00:00 22,5 15,8 15 8 ENE 1025,2 18 0,0
20.08.2019 14:00:00 22,2 15,5 18 10 ENE 1025,1 25 -
20.08.2019 13:00:00 22,2 14,3 18 10 ENE 1025,3 20 0,0
20.08.2019 12:00:00 21,3 14,7 21 11 ENE 1024,9 19 0,0
20.08.2019 11:00:00 19,9 14,7 16 9 ENE 1024,5 17 -
20.08.2019 10:00:00 18,7 15,8 5 3 ESE 1024,1 16 0,0
20.08.2019 09:00:00 18,2 15,6 13 7 E 1023,7 17 0,0
20.08.2019 08:00:00 16,7 15,4 4 2 WSW 1023,3 12 -
20.08.2019 07:00:00 16,9 15,8 11 6 SW 1022,7 10 0,4
20.08.2019 06:00:00 17,3 15,6 13 7 NNW 1022,1 4,3 0,4
20.08.2019 05:00:00 17,1 14,9 9 5 SW 1022,1 12 -
20.08.2019 04:00:00 16,8 15,3 8 4 WSW 1022,2 14 0,0
20.08.2019 03:00:00 16,9 15,2 8 4 SW 1022,1 18 0,0
20.08.2019 02:00:00 17,9 14,4 4 2 SSE 1022,4 12 -
20.08.2019 01:00:00 17,5 14,6 5 3 SSW 1022,5 20 0,0
20.08.2019 00:00:00 17,2 14,5 11 6 SSE 1022,5 17 0,0
19.08.2019 23:00:00 17,0 14,6 18 10 SE 1022,4 12 -
19.08.2019 22:00:00 18,0 15,1 16 9 ESE 1022,1 17 0,0
19.08.2019 21:00:00 18,4 15,3 16 9 NNE 1021,9 6 0,4
19.08.2019 20:00:00 19,8 14,6 13 7 NNE 1021,6 20 -
19.08.2019 19:00:00 19,9 14,3 13 7 NE 1021,5 11 0,0
19.08.2019 18:00:00 20,0 14,4 13 7 NNE 1021,5 17 0,0
19.08.2019 17:00:00 19,4 13,8 13 7 NNE 1021,4 20 -
19.08.2019 16:00:00 19,8 14,4 8 4 N 1021,7 15 0,0
19.08.2019 15:00:00 20,1 13,8 4 2 N 1021,9 17 0,0
19.08.2019 14:00:00 19,3 13,9 8 4 NNW 1021,7 15 -
19.08.2019 13:00:00 19,6 14,6 4 2 ENE 1021,7 19 0,0
19.08.2019 12:00:00 19,6 14,2 4 2 ENE 1021,5 18 0,0
19.08.2019 11:00:00 18,1 14,8 8 4 SSW 1021,3 20 -
19.08.2019 10:00:00 17,0 15,2 8 4 SSW 1021,0 13 0,0
19.08.2019 09:00:00 15,9 14,4 11 6 SW 1021,1 13 0,0
19.08.2019 08:00:00 15,7 14,7 13 7 S 1020,7 18 -

tt = temperature
td = dewpoint
ff = wind speed
dd = wind direction
ppp = reduced air pressure
vv = visibility
rr = precipitation

Next stations